BEIDOU-3S M1S (C58)

Last updated on Thu Dec 21 2023 00:03:15 GMT+0000 (Coordinated Universal Time)

1 40749U 15037B 23353.38165071 -.00000071 00000+0 00000+0 0 9994 2 40749 55.6031 333.1587 0006734 312.9586 46.9877 1.86232784 57150
UTC large
Height (km)
Speed (km/s)
/
Latitude / Longitude
Inclination (degrees)
Orbital Period (minutes)
Azimuth
Elevation
Range (km)
Doppler Factor

Next 0 passes for location: London (51.5072 / 0.1276)

Sorry there are no passes over London.